Weather History for KCDA - December, 2012

Change the Weather History Date:

Friday, December 7, 2012

  Actual Average (K1V4) Record (K1V4)
Temperature  
Mean Temperature 27 °F 26 °F  
Max Temperature 35 °F 34 °F 67 °F (1998)
Min Temperature 19 °F 19 °F -17 °F (1901)
Degree Days  
Heating Degree Days 38 38  
Month to date heating degree days 260  
Since 1 July heating degree days 1916  
Cooling Degree Days 0 0  
Month to date cooling degree days 0  
Year to date cooling degree days 433  
Moisture  
Dew Point 20 °F    
Average Humidity 69    
Maximum Humidity 87    
Minimum Humidity 47    
Precipitation  
Precipitation 0.00 in 0.11 in 1.48 in (1983)
Month to date precipitation 0.76  
Year to date precipitation 37.18  
Sea Level Pressure  
Sea Level Pressure 30.08 in    
Wind  
Wind Speed 3 mph (SSE)    
Max Wind Speed 12 mph    
Max Gust Speed 17 mph    
Visibility 10 miles    
Events      
T = Trace of Precipitation, MM = Missing Value Source: NWS Daily Summary

Daily Weather History Graph

Daily Weather History Graph

Search for Another Location

Airport or City:

Trip Planner

Search our weather history database for the weather conditions in past years. The results will help you decide how hot, cold, wet, or windy it might be!

Date:

Astronomy

Dec. 07, 2012 Rise Set
Actual Time 7:11 AM EST 4:08 PM EST
Civil Twilight 6:38 AM EST 4:41 PM EST
Nautical Twilight 6:01 AM EST 5:17 PM EST
Astronomical Twilight 5:26 AM EST 5:53 PM EST
Moon 12:13 AM EST (12/7) 12:15 PM EST (12/7)
Length of Visible Light 10h 02m
Length of Day
8h 56m
Last Quarter, 39% of the Moon is Illuminated
Dec 7
Last Quarter
Dec 13
New
Dec 20
First Quarter
Dec 28
Full
Jan 4
Last Quarter

Hourly Weather History & Observations

Time (EST) Temp. Windchill Dew Point Humidity Pressure Visibility Wind Dir Wind Speed Gust Speed Precip Events Conditions
12:15 AM 21.2 °F - 17.2 °F 85% 30.20 in 10.0 mi Calm Calm - N/A   Scattered Clouds
12:35 AM 21.2 °F - 18.0 °F 87% 30.20 in 10.0 mi Calm Calm - N/A   Mostly Cloudy
12:55 AM 21.6 °F 16.8 °F 17.8 °F 85% 30.19 in 10.0 mi East 3.5 mph - N/A   Scattered Clouds
1:15 AM 20.5 °F - 16.7 °F 85% 30.19 in 10.0 mi Calm Calm - N/A   Clear
1:35 AM 21.0 °F - 17.4 °F 86% 30.19 in 10.0 mi Calm Calm - N/A   Clear
1:55 AM 21.6 °F - 17.1 °F 83% 30.19 in 10.0 mi Calm Calm - N/A   Clear
2:15 AM 21.6 °F - 17.1 °F 83% 30.19 in 10.0 mi Calm Calm - N/A   Clear
2:35 AM 20.3 °F 15.4 °F 16.9 °F 87% 30.18 in 10.0 mi East 3.5 mph - N/A   Clear
2:55 AM 19.6 °F - 16.3 °F 87% 30.18 in 10.0 mi Calm Calm - N/A   Clear
3:15 AM 21.0 °F - 16.9 °F 84% 30.17 in 10.0 mi Calm Calm - N/A   Clear
3:35 AM 22.8 °F 18.2 °F 17.4 °F 80% 30.16 in 10.0 mi East 3.5 mph - N/A   Clear
3:55 AM 22.5 °F - 17.6 °F 82% 30.16 in 10.0 mi Calm Calm - N/A   Clear
4:15 AM 22.8 °F - 17.4 °F 80% 30.15 in 10.0 mi Calm Calm - N/A   Clear
4:35 AM 22.8 °F - 17.2 °F 79% 30.15 in 10.0 mi Calm Calm - N/A   Clear
4:55 AM 23.0 °F - 16.5 °F 76% 30.14 in 10.0 mi Calm Calm - N/A   Clear
5:15 AM 22.3 °F - 16.3 °F 78% 30.13 in 10.0 mi Calm Calm - N/A   Clear
5:35 AM 23.4 °F - 16.5 °F 75% 30.13 in 10.0 mi Calm Calm - N/A   Clear
5:55 AM 22.6 °F - 16.5 °F 77% 30.13 in 10.0 mi Calm Calm - N/A   Clear
6:15 AM 23.0 °F - 16.5 °F 76% 30.13 in 10.0 mi Calm Calm - N/A   Clear
6:35 AM 22.6 °F 18.0 °F 16.0 °F 76% 30.12 in 10.0 mi ESE 3.5 mph - N/A   Clear
6:55 AM 23.9 °F 18.0 °F 16.2 °F 72% 30.12 in 10.0 mi SSE 4.6 mph - N/A   Clear
7:15 AM 23.4 °F 17.4 °F 16.5 °F 75% 30.12 in 10.0 mi ESE 4.6 mph - N/A   Clear
7:35 AM 24.8 °F - 16.2 °F 70% 30.11 in 10.0 mi Calm Calm - N/A   Clear
7:55 AM 23.4 °F 18.9 °F 16.3 °F 75% 30.10 in 10.0 mi East 3.5 mph - N/A   Clear
8:15 AM 25.9 °F 19.2 °F 16.5 °F 68% 30.10 in 10.0 mi South 5.8 mph - N/A   Clear
8:35 AM 27.1 °F 23.2 °F 16.5 °F 64% 30.10 in 10.0 mi SSW 3.5 mph - N/A   Clear
8:55 AM 27.3 °F 23.4 °F 16.9 °F 65% 30.10 in 10.0 mi South 3.5 mph - N/A   Clear
9:15 AM 28.8 °F 25.0 °F 17.2 °F 62% 30.10 in 10.0 mi SSE 3.5 mph - N/A   Clear
9:35 AM 29.3 °F 24.3 °F 18.0 °F 63% 30.11 in 10.0 mi SSE 4.6 mph - N/A   Clear
9:55 AM 30.2 °F 24.3 °F 18.0 °F 60% 30.10 in 10.0 mi SSE 5.8 mph - N/A   Clear
10:15 AM 30.2 °F 24.3 °F 18.0 °F 60% 30.09 in 10.0 mi SSE 5.8 mph - N/A   Clear
10:35 AM 31.1 °F 24.5 °F 17.8 °F 58% 30.08 in 10.0 mi South 6.9 mph - N/A   Clear
10:55 AM 33.4 °F 25.4 °F 18.1 °F 54% 30.07 in 10.0 mi South 10.4 mph - N/A   Scattered Clouds
11:15 AM 34.0 °F 27.2 °F 17.6 °F 51% 30.05 in 10.0 mi SSE 8.1 mph 17.3 mph N/A   Mostly Cloudy
11:35 AM 35.4 °F 27.8 °F 16.9 °F 47% 30.05 in 10.0 mi SSE 10.4 mph - N/A   Mostly Cloudy
11:55 AM 35.1 °F 26.9 °F 17.2 °F 48% 30.05 in 10.0 mi SSE 11.5 mph 16.1 mph N/A   Overcast
12:15 PM 35.1 °F 28.6 °F 17.2 °F 48% 30.04 in 10.0 mi SSE 8.1 mph - N/A   Overcast
12:35 PM 35.1 °F 29.3 °F 17.4 °F 49% 30.03 in 10.0 mi South 6.9 mph - N/A   Overcast
12:55 PM 35.1 °F 27.9 °F 17.6 °F 49% 30.03 in 10.0 mi South 9.2 mph - N/A   Overcast
1:15 PM 35.1 °F 27.9 °F 17.4 °F 49% 30.02 in 10.0 mi South 9.2 mph - N/A   Mostly Cloudy
1:35 PM 35.1 °F 30.1 °F 17.6 °F 49% 30.02 in 10.0 mi South 5.8 mph - N/A   Overcast
1:55 PM 35.1 °F 29.3 °F 18.1 °F 50% 30.01 in 10.0 mi South 6.9 mph - N/A   Overcast
2:15 PM 35.1 °F 30.1 °F 18.1 °F 50% 30.01 in 10.0 mi SSE 5.8 mph - N/A   Overcast
2:35 PM 35.1 °F 31.0 °F 18.7 °F 51% 30.01 in 10.0 mi SSE 4.6 mph - N/A   Overcast
2:55 PM 35.1 °F 31.0 °F 19.4 °F 53% 30.02 in 10.0 mi South 4.6 mph - N/A   Overcast
3:15 PM 34.9 °F 29.9 °F 19.4 °F 53% 30.02 in 10.0 mi South 5.8 mph - N/A   Overcast
3:35 PM 34.5 °F 29.4 °F 19.6 °F 54% 30.02 in 10.0 mi SSE 5.8 mph - N/A   Overcast
3:55 PM 34.2 °F 30.0 °F 19.9 °F 56% 30.02 in 10.0 mi SSE 4.6 mph - N/A   Overcast
4:15 PM 34.2 °F 30.0 °F 20.5 °F 57% 30.02 in 10.0 mi SE 4.6 mph - N/A   Overcast
4:35 PM 34.0 °F 31.0 °F 20.8 °F 59% 30.02 in 10.0 mi SSE 3.5 mph - N/A   Overcast
4:55 PM 33.8 °F 29.6 °F 21.4 °F 60% 30.02 in 10.0 mi South 4.6 mph - N/A   Overcast
5:15 PM 33.8 °F 29.6 °F 21.4 °F 60% 30.03 in 10.0 mi SSE 4.6 mph - N/A   Overcast
5:35 PM 33.8 °F 30.8 °F 21.7 °F 61% 30.03 in 10.0 mi SSE 3.5 mph - N/A   Overcast
5:55 PM 33.8 °F 29.6 °F 22.1 °F 62% 30.02 in 10.0 mi SE 4.6 mph - N/A   Overcast
6:15 PM 33.8 °F 29.6 °F 22.6 °F 64% 30.03 in 10.0 mi SSE 4.6 mph - N/A   Overcast
6:35 PM 33.8 °F 30.8 °F 23.0 °F 65% 30.02 in 10.0 mi SSE 3.5 mph - N/A   Overcast
6:55 PM 33.8 °F 28.6 °F 23.7 °F 67% 30.02 in 10.0 mi South 5.8 mph - N/A   Overcast
7:15 PM 33.8 °F 30.8 °F 23.9 °F 67% 30.02 in 10.0 mi South 3.5 mph - N/A   Overcast
7:35 PM 33.6 °F 30.6 °F 23.9 °F 68% 30.02 in 10.0 mi South 3.5 mph - N/A   Overcast
7:55 PM 33.4 °F 30.4 °F 24.1 °F 69% 30.02 in 10.0 mi South 3.5 mph - N/A   Overcast
8:15 PM 33.3 °F 30.2 °F 24.3 °F 70% 30.02 in 10.0 mi SSE 3.5 mph - N/A   Overcast
8:35 PM 32.9 °F - 24.3 °F 71% 30.02 in 10.0 mi Calm Calm - N/A   Scattered Clouds
8:55 PM 32.2 °F - 24.3 °F 73% 30.02 in 10.0 mi Calm Calm - N/A   Clear
9:35 PM 32.7 °F 27.3 °F 26.6 °F 78% 30.02 in 10.0 mi SSE 5.8 mph - N/A   Overcast
9:55 PM 32.5 °F 28.1 °F 27.3 °F 81% 30.02 in 10.0 mi SSE 4.6 mph - N/A   Overcast
10:15 PM 32.5 °F 29.3 °F 27.5 °F 82% 30.01 in 10.0 mi SSE 3.5 mph - N/A   Overcast
10:35 PM 32.9 °F - 28.2 °F 83% 30.01 in 10.0 mi Calm Calm - N/A   Overcast
10:55 PM 32.9 °F - 28.4 °F 84% 30.02 in 10.0 mi Calm Calm - N/A   Overcast
11:15 PM 32.9 °F - 28.8 °F 85% 30.02 in 10.0 mi Calm Calm - N/A   Overcast
11:35 PM 32.9 °F - 28.9 °F 85% 30.02 in 10.0 mi Calm Calm - N/A   Overcast
11:55 PM 32.9 °F - 29.3 °F 87% 30.02 in 10.0 mi Calm Calm - N/A   Overcast